Wind_Speed
44 41 39 43 48 47 42 40 40 39 37 37 39 38 38 37 36 36 32 32 36 31 29 32 31 33 35 35 36 35 34 33 33 31 31 32 31 30 29 29 29 30 30 29 30 31 31 30 31 30 29 29 30 31 31 33 33 34 35 35 36 37 38 40 41 43 45 47 49 51 53 55 56 58 60 61 63 64 65 65 66 67 68 70 72 74
47 41 41 48 50 45 42 42 42 40 39 40 41 39 38 38 38 37 33 34 37 32 31 33 31 32 36 36 35 36 36 36 34 32 33 34 33 31 31 30 31 32 31 31 31 33 33 33 32 32 32 32 33 34 34 35 36 37 38 38 39 40 42 43 45 46 48 50 52 54 55 57 58 60 61 62 63 64 65 66 67 69 70 72 74 76
48 43 45 50 49 45 44 44 43 41 41 41 42 42 40 40 40 39 35 35 37 34 33 34 31 32 36 37 37 36 36 37 37 35 35 35 34 33 32 31 33 34 33 33 33 34 34 35 34 34 34 34 35 36 37 37 39 40 41 41 42 43 45 46 48 50 51 53 55 56 57 58 60 61 62 63 64 65 67 68 69 71 73 75 76 78
49 46 47 50 50 48 47 45 43 43 43 43 44 43 42 42 42 40 37 36 37 37 36 35 32 32 37 37 37 37 35 38 40 39 37 36 36 36 33 33 34 35 35 36 35 35 37 37 36 36 36 37 38 38 39 40 42 43 44 45 46 47 48 50 51 52 54 55 56 57 59 61 63 64 65 66 66 67 69 70 72 74 75 77 79 80
50 48 47 50 53 51 49 46 44 44 44 45 46 44 43 45 45 43 40 37 37 39 38 37 32 32 38 38 37 39 38 38 41 42 40 38 38 38 36 35 35 36 38 38 37 38 39 39 39 39 39 39 40 41 42 43 45 46 47 48 49 50 51 53 54 55 57 58 59 60 62 64 66 67 68 68 68 70 72 73 74 76 77 79 81 83
51 48 47 52 56 53 50 48 46 46 47 47 47 46 46 47 47 45 42 39 38 40 40 40 34 32 37 39 37 41 41 40 43 43 41 41 40 40 39 38 37 38 39 39 40 40 40 42 42 42 42 42 43 43 45 46 48 49 50 51 52 53 54 56 57 59 60 61 62 64 66 67 69 70 70 70 71 72 74 75 76 78 80 81 83 85
51 50 50 53 56 55 52 50 48 49 50 48 47 48 49 50 49 47 45 42 40 41 41 41 38 33 35 39 41 42 42 43 45 44 43 43 42 41 41 41 40 40 41 41 42 42 42 43 44 45 46 46 46 47 48 49 51 51 52 54 54 56 57 59 60 62 63 64 66 68 69 70 71 71 71 72 73 75 77 78 79 80 82 84 86 88
51 53 53 53 55 56 55 53 52 52 51 49 48 49 50 51 51 49 47 44 42 43 41 40 41 37 33 38 45 44 41 44 47 47 45 44 44 43 42 43 43 43 43 43 43 44 44 45 46 47 48 49 50 51 52 53 54 54 55 56 57 59 60 61 63 64 66 67 69 70 72 72 73 73 74 75 77 78 79 80 82 83 84 86 88 89
53 53 54 54 56 56 56 56 56 54 52 50 50 51 51 52 52 52 50 47 45 43 39 40 45 42 34 37 47 47 43 45 49 49 46 45 45 45 45 46 46 45 45 45 45 45 46 47 48 49 50 51 53 54 55 56 57 58 59 59 60 62 63 64 66 67 69 70 72 72 73 74 74 75 76 78 80 81 82 83 83 84 86 88 90 90
53 53 55 56 56 56 57 58 57 56 53 51 52 52 52 53 54 54 52 49 47 40 37 42 49 49 38 36 44 48 47 49 51 50 48 48 48 47 47 48 48 47 47 47 48 48 48 49 50 51 52 54 55 56 57 59 60 61 62 63 64 65 66 67 69 70 71 72 73 73 74 75 76 78 80 81 83 83 84 84 85 87 88 90 90 90
54 54 55 56 56 56 57 57 57 57 55 54 55 54 55 55 55 55 52 51 47 39 40 47 52 52 41 34 41 47 50 54 55 52 50 51 50 48 49 50 50 49 49 49 49 50 50 51 52 53 54 55 56 57 58 60 62 63 64 65 66 67 68 69 70 71 72 73 73 74 76 78 79 80 82 83 84 85 85 86 87 88 89 90 90 91
55 54 54 55 56 57 57 57 57 58 57 57 57 55 56 55 54 54 52 52 48 43 46 51 53 53 42 35 42 46 48 55 58 55 53 53 52 51 51 52 52 51 51 52 52 52 52 53 54 55 56 57 57 58 59 60 62 62 63 64 65 67 68 69 70 71 72 73 75 77 78 80 81 82 83 84 85 86 86 87 88 89 90 91 91 92
56 55 55 55 56 56 58 58 58 59 59 59 57 56 56 56 55 53 52 53 51 49 50 51 52 50 41 39 45 46 48 53 56 56 55 55 55 54 54 54 54 54 54 54 54 54 54 55 56 57 58 59 60 60 61 62 62 62 62 63 65 66 67 69 70 72 73 75 77 78 79 80 82 83 84 85 86 87 88 88 90 91 92 92 93 95
57 57 57 57 56 58 59 60 59 59 59 58 57 58 58 57 56 53 53 55 54 52 50 50 51 47 41 42 46 49 51 52 55 56 56 56 57 56 56 56 55 56 56 55 56 56 57 57 58 59 60 61 62 62 62 62 62 62 63 64 65 67 69 71 72 74 76 77 78 79 80 81 82 84 85 87 88 89 90 91 92 93 94 95 96 98
59 58 58 59 59 60 60 60 60 58 57 57 58 59 58 58 59 56 56 57 54 52 50 49 49 45 44 46 47 51 53 54 55 57 58 58 58 58 58 58 58 57 57 57 58 58 59 59 60 61 62 62 63 62 62 61 61 63 64 66 68 70 71 73 75 76 77 77 78 79 80 81 83 85 87 88 90 92 93 94 94 95 96 98 100 102
61 59 59 60 61 61 61 61 60 58 56 57 59 58 57 59 62 60 58 57 56 54 50 48 47 46 48 49 48 50 53 55 57 57 58 60 59 59 59 59 59 58 58 58 58 59 59 59 60 60 61 62 62 61 61 62 63 65 67 69 71 73 74 75 75 76 76 77 78 79 80 82 84 86 87 89 91 92 94 95 96 98 99 101 103 105
63 60 59 59 60 61 62 62 61 58 55 56 57 57 58 60 62 61 59 58 59 55 49 48 48 47 49 48 47 51 54 56 59 59 60 60 59 59 59 59 58 58 58 58 58 58 58 58 59 60 61 61 62 62 62 64 66 68 70 71 73 74 74 75 75 75 76 77 78 79 81 82 84 85 87 88 90 91 93 95 97 99 101 104 106 108
66 63 60 60 61 61 62 63 61 58 56 56 57 58 60 61 61 61 59 57 58 56 51 50 50 49 50 48 48 53 56 58 61 61 61 60 60 60 60 59 59 58 58 58 58 58 58 59 60 61 62 63 63 63 65 66 68 70 71 72 73 73 73 74 74 75 76 77 79 80 82 83 84 86 87 89 90 92 94 96 98 101 103 105 108 109
69 67 64 63 62 63 64 63 61 59 59 59 59 59 60 60 59 60 60 57 58 58 52 50 52 50 50 51 52 53 56 60 62 62 61 61 62 61 61 61 60 60 61 60 60 60 60 61 62 62 64 65 65 65 66 68 69 70 71 72 72 73 73 73 74 76 78 79 80 82 84 85 86 88 90 91 92 94 96 98 101 103 105 107 108 109
71 71 68 65 64 66 66 64 62 62 63 63 61 59 59 59 59 60 60 58 58 58 54 52 52 50 49 53 54 53 56 60 62 62 61 61 61 61 61 61 62 62 62 61 61 61 62 62 63 64 65 66 66 67 67 68 69 70 71 71 72 73 73 75 77 78 80 81 82 84 86 87 89 90 91 92 94 96 98 100 102 104 106 107 107 108
74 73 71 68 68 68 66 66 66 67 66 64 62 61 61 62 63 62 60 59 60 60 58 56 52 47 50 53 51 52 56 59 62 62 62 61 61 61 61 62 63 63 62 62 62 63 64 64 65 66 67 68 68 67 67 68 69 70 71 72 73 74 76 77 79 81 82 83 84 86 87 89 90 91 92 94 96 98 100 102 103 104 105 106 106 107
76 75 74 71 69 68 68 69 69 69 68 66 65 63 63 64 66 66 63 61 64 63 59 59 52 44 49 52 49 51 55 58 61 63 63 63 62 61 62 63 63 63 63 63 63 64 65 66 67 68 68 68 68 68 69 70 70 71 73 74 75 77 79 81 82 83 84 85 87 88 89 90 92 93 94 96 99 100 102 103 104 105 105 106 106 106
79 78 75 72 70 71 71 71 71 71 69 67 66 65 67 69 68 69 68 65 66 63 58 60 53 43 45 50 50 53 55 55 58 60 62 63 62 62 62 63 64 63 63 63 64 66 67 68 68 69 69 69 69 70 72 72 73 75 76 77 78 81 82 84 85 86 87 88 89 90 91 92 93 94 96 99 100 102 103 104 105 106 106 106 106 106
81 79 76 75 75 74 73 71 71 70 69 69 68 69 72 71 69 71 70 68 68 62 59 61 53 42 44 49 51 55 55 55 57 59 61 64 63 63 63 64 64 64 64 65 66 68 69 69 69 70 70 71 72 74 75 76 77 78 79 81 83 85 86 87 88 88 89 90 91 92 93 94 95 97 99 100 102 103 104 105 105 106 106 106 106 106
83 81 79 79 78 77 74 71 69 69 71 72 72 73 72 71 72 72 71 73 69 60 61 63 52 45 49 51 52 56 57 57 60 62 64 66 66 65 65 65 66 65 66 67 69 71 71 71 72 73 74 75 76 77 79 80 81 81 83 85 87 88 89 89 89 90 91 92 93 94 95 96 98 99 101 102 103 104 104 105 105 105 105 105 105 106
84 82 81 81 80 78 74 70 69 71 74 75 73 72 72 72 75 73 73 75 68 60 65 65 54 51 56 56 56 59 60 61 62 63 65 66 67 67 68 68 68 68 69 71 73 74 74 74 75 76 77 78 79 80 82 83 84 85 86 88 90 91 91 90 91 92 93 95 96 97 98 99 100 101 102 103 104 104 104 104 105 105 105 105 105 106
85 83 82 81 81 78 73 71 73 76 77 75 73 73 73 73 74 75 76 73 67 68 69 63 58 59 59 60 63 62 63 64 64 65 67 67 68 69 70 71 71 71 73 74 76 76 76 77 78 79 80 81 82 83 84 85 86 87 89 90 91 92 91 92 93 95 96 97 98 99 100 101 102 102 103 104 104 104 104 104 104 105 105 106 106 107
86 85 83 81 81 78 74 74 77 80 78 76 74 74 73 73 74 76 74 69 70 76 69 59 65 66 59 63 69 66 66 67 67 68 70 70 71 72 73 74 74 75 76 77 78 78 79 80 80 81 83 84 85 86 87 88 89 90 91 92 92 93 93 95 96 97 98 98 99 100 101 102 102 103 104 105 105 104 104 105 105 106 106 107 107 108
87 87 84 83 83 80 77 77 80 82 82 79 77 74 72 73 74 74 73 70 74 80 69 62 70 69 62 69 73 70 71 71 71 73 73 74 76 75 76 76 76 77 78 79 80 81 81 82 83 84 86 87 88 89 90 91 91 92 92 93 94 95 96 98 98 98 99 100 100 101 102 103 103 104 105 105 105 105 105 106 106 107 108 108 109 109
89 89 87 87 87 84 80 80 82 85 86 84 81 78 75 73 73 74 75 74 76 79 71 68 74 70 66 72 75 75 76 75 74 75 75 77 78 78 79 79 79 81 81 82 83 83 84 85 86 87 88 89 90 91 91 93 93 94 94 94 96 97 99 99 99 100 101 101 102 103 103 104 104 105 105 105 106 106 106 107 108 109 109 110 110 110
91 91 90 90 91 87 82 82 84 87 89 88 86 82 76 73 74 77 78 76 78 79 74 75 77 71 68 75 78 78 79 78 77 78 78 80 81 81 83 83 83 84 84 85 86 86 87 88 88 89 90 90 91 92 93 94 95 96 96 96 98 99 100 100 100 102 102 103 104 104 104 105 105 106 106 106 107 107 108 109 110 111 111 111 112 112
93 92 91 91 93 89 82 84 88 90 92 93 88 80 74 74 79 82 81 79 81 81 79 81 80 73 72 80 81 79 80 81 81 82 83 84 84 84 85 86 86 87 87 87 88 88 89 89 89 90 91 92 93 94 95 96 96 97 97 98 100 101 101 101 102 103 104 104 105 105 105 106 106 107 107 107 108 109 110 111 112 113 113 113 114 115
92 93 92 92 94 90 84 87 92 93 96 95 85 75 74 79 85 87 84 82 83 84 84 85 83 79 80 83 83 82 84 85 85 85 86 86 86 87 87 87 88 89 89 90 90 90 90 90 91 92 93 94 95 96 96 96 97 98 99 100 101 101 101 102 103 104 104 105 106 106 106 107 107 108 109 109 110 112 113 114 115 115 115 116 117 120
93 93 93 94 95 92 87 89 94 97 98 92 81 76 79 83 86 88 87 85 85 86 87 86 85 84 85 86 86 87 88 88 88 88 88 87 88 89 89 90 90 91 92 92 92 91 91 92 93 94 95 96 96 96 97 98 99 99 99 100 101 101 102 103 103 104 105 106 106 107 107 108 109 110 111 112 113 115 116 117 117 117 118 120 123 125
94 94 94 94 96 95 92 93 97 98 95 88 83 83 84 85 87 89 88 86 86 87 87 87 87 87 88 89 90 89 89 90 91 90 90 89 90 90 91 91 92 92 92 92 92 92 92 93 94 95 96 97 97 98 99 100 100 99 100 101 101 102 103 103 104 105 106 107 108 108 109 110 111 113 114 115 116 117 118 119 120 121 123 126 128 131
96 96 95 96 97 97 97 98 100 99 94 90 88 87 85 86 88 90 90 88 87 89 90 89 88 89 91 91 90 90 90 91 91 90 90 91 91 92 92 93 93 93 92 92 92 93 94 95 95 96 98 99 99 101 101 101 100 100 101 102 102 103 104 104 105 107 108 109 110 111 112 113 114 116 117 118 119 120 122 123 124 126 129 131 134 136
99 98 98 99 99 100 100 101 102 102 98 94 90 88 89 90 91 93 94 90 88 91 93 90 89 91 92 91 91 91 91 91 91 90 90 92 94 94 94 94 94 93 93 93 94 95 96 97 97 98 99 100 101 101 101 101 101 102 102 103 103 104 105 106 108 109 110 111 112 113 115 116 117 119 120 121 122 124 125 127 129 131 134 136 139 142
100 100 100 101 102 101 102 103 104 105 101 94 90 92 94 94 94 96 97 93 88 90 92 91 90 91 91 91 92 92 93 93 91 90 92 96 97 97 96 96 95 95 95 96 97 98 99 99 99 100 100 100 101 100 101 101 102 103 104 105 105 106 107 110 111 112 113 114 115 116 118 119 121 121 122 123 125 127 129 131 134 136 138 141 144 147
99 99 99 101 103 103 103 104 104 104 99 93 92 94 95 95 95 98 99 93 87 87 91 92 91 91 91 92 93 94 94 94 92 93 96 99 99 98 98 97 97 98 99 100 101 101 102 102 102 102 102 102 102 102 102 103 104 105 106 107 108 110 112 114 115 115 115 117 118 120 121 122 123 124 125 127 129 131 133 136 138 140 143 146 148 151
100 100 100 101 101 102 102 103 103 102 98 94 92 92 93 93 94 97 97 92 86 87 92 93 93 93 93 93 94 95 95 96 95 96 98 99 100 100 99 100 101 102 102 103 104 105 105 105 105 105 104 104 104 104 105 106 107 108 109 110 112 115 117 118 117 117 118 120 121 123 123 124 125 127 129 131 133 136 138 140 142 145 147 150 152 154
104 103 102 101 101 101 102 102 102 101 98 95 93 93 92 93 93 94 94 91 89 90 93 94 95 95 94 95 96 97 97 98 97 97 98 99 100 101 102 104 105 105 106 107 107 107 108 107 107 107 106 107 107 108 108 109 110 112 113 115 117 120 120 119 119 120 122 123 124 125 126 127 129 131 134 136 138 140 141 143 146 148 151 153 155 157
106 105 105 103 102 101 102 103 103 102 98 95 94 94 94 94 94 94 93 92 92 92 93 95 97 97 97 97 98 98 99 99 98 98 99 100 101 103 106 107 108 109 109 110 110 110 110 109 109 109 110 110 111 112 112 113 114 116 117 120 122 123 122 121 122 124 125 126 127 128 129 131 134 136 138 140 141 143 145 147 149 151 154 156 157 159
109 108 108 106 104 103 104 104 105 102 98 96 97 97 97 96 96 96 96 95 95 94 95 96 98 98 99 99 99 100 100 100 100 100 101 102 104 106 109 110 111 112 112 112 112 112 112 112 112 113 113 114 115 116 116 117 118 120 122 124 125 125 124 125 126 127 127 129 130 132 134 136 138 140 142 143 144 146 148 150 152 154 156 158 159 161
112 111 110 107 106 106 106 107 106 104 101 100 101 101 100 100 100 99 99 98 98 97 97 97 99 100 100 101 101 102 102 102 103 103 104 106 108 110 111 113 114 114 114 115 115 115 115 115 116 116 117 118 119 119 120 121 122 123 125 127 128 128 128 129 129 130 131 132 134 136 138 140 141 143 144 146 147 149 151 153 155 157 159 160 161 162
114 113 112 110 110 110 110 109 108 107 106 105 104 104 104 104 103 103 102 102 101 100 99 99 100 101 102 103 103 104 104 105 106 106 108 109 111 113 114 115 116 116 117 117 117 118 118 118 119 120 121 121 122 123 124 125 125 126 128 130 130 131 131 132 132 133 135 136 138 140 141 143 145 146 147 149 150 152 154 156 158 159 161 162 163 162
116 115 114 113 113 113 113 112 111 110 109 109 108 108 108 108 107 106 105 104 104 103 103 103 103 104 105 105 106 107 107 108 109 110 111 112 114 115 116 117 118 118 119 119 120 120 121 122 122 123 124 125 126 127 127 128 128 129 131 132 133 134 135 135 136 137 138 140 142 143 144 146 147 148 150 152 153 155 157 159 160 162 163 163 162 160
117 117 116 116 116 115 115 115 114 113 113 112 112 112 112 112 111 110 109 108 108 107 107 107 107 108 108 108 109 110 111 111 112 113 114 116 117 118 118 119 120 121 121 122 123 123 124 125 126 127 128 129 130 130 131 131 131 132 134 135 136 137 138 139 140 141 142 143 145 146 147 148 150 151 153 155 156 158 160 161 162 163 163 162 160 155
118 119 118 117 117 117 116 116 116 116 116 116 116 116 116 115 115 115 114 113 113 112 112 112 112 112 112 112 113 114 114 115 116 117 118 119 120 120 121 122 122 123 124 125 125 126 127 128 129 130 131 132 133 133 134 134 135 136 137 138 139 141 142 143 143 144 145 146 148 149 150 151 153 154 156 158 159 161 162 163 164 163 162 160 155 149
121 121 121 120 120 119 119 119 119 119 119 120 120 119 119 119 118 118 118 117 117 117 117 116 116 116 116 117 117 117 118 119 119 120 121 122 123 123 124 125 126 126 127 128 129 130 130 131 132 133 134 135 136 136 136 137 138 139 140 141 142 143 145 146 147 148 148 150 151 152 153 155 156 158 159 161 162 163 164 164 164 162 159 154 149 143
123 124 125 125 125 124 124 123 123 123 123 123 123 122 122 122 121 121 121 121 121 121 120 120 119 120 120 120 120 121 121 122 123 123 124 125 125 126 127 128 129 129 130 131 132 132 133 134 135 136 137 138 138 139 139 140 141 142 143 144 145 146 148 149 150 151 152 153 154 155 156 157 159 160 162 163 164 164 164 163 161 158 153 148 143 139
126 127 128 129 129 128 128 127 127 126 126 126 126 126 125 125 125 124 124 124 124 123 123 123 123 123 123 124 124 124 124 125 125 126 126 127 128 129 130 131 132 132 133 134 134 135 136 137 137 138 139 140 141 141 142 143 144 145 146 148 149 150 151 152 153 154 155 156 157 158 159 160 162 163 164 164 164 164 162 160 156 151 146 142 139 136
Wind_Direction
262 260 264 263 259 259 261 260 258 258 259 259 259 259 260 261 260 258 256 257 260 258 256 254 254 257 256 254 255 258 259 258 258 260 261 262 263 265 266 266 267 267 266 265 265 264 264 263 263 264 265 265 266 267 269 271 274 276 279 282 285 287 290 292 293 294 295 295 296 297 298 298 298 297 297 298 298 299 300 301 301 301 301 301 301 301
260 259 262 261 260 261 261 260 258 258 258 259 260 260 259 260 260 258 256 257 259 258 256 256 255 255 257 256 255 256 259 262 262 261 261 262 263 264 265 266 267 268 268 266 265 264 264 264 265 266 267 267 268 269 270 271 273 276 279 281 284 286 288 289 291 292 292 294 295 296 297 297 297 296 297 297 298 299 299 300 300 299 299 300 300 301
259 258 259 261 262 263 261 259 259 259 258 259 260 261 261 260 260 260 257 255 259 258 256 256 256 256 258 258 257 256 257 262 265 263 261 263 265 264 264 265 267 268 269 268 266 265 265 266 267 267 268 269 269 270 271 273 274 276 278 281 282 284 286 288 289 290 292 293 294 295 296 296 296 297 297 298 299 299 299 299 299 298 299 299 299 299
257 257 259 261 263 263 261 260 260 260 259 259 260 260 262 262 260 260 258 256 258 258 256 256 256 258 259 258 258 259 257 258 262 264 264 264 265 266 266 265 266 267 268 269 268 266 265 266 267 268 268 270 270 271 273 273 274 276 278 280 282 284 285 287 288 290 292 293 294 295 295 296 296 297 298 299 299 299 298 298 298 298 298 298 298 298
257 257 260 263 262 261 262 262 260 259 259 259 260 260 261 262 261 260 259 257 258 259 258 257 255 257 260 260 260 260 258 257 260 262 264 265 266 267 267 266 267 267 267 268 269 268 266 266 267 268 269 270 271 272 273 273 274 276 278 280 282 284 285 287 289 291 292 293 294 295 295 296 296 297 298 299 299 298 298 298 297 297 297 297 297 297
258 258 259 262 263 262 262 262 261 259 257 257 259 260 260 260 261 261 261 258 258 260 260 259 255 254 260 264 261 260 259 258 258 260 263 264 265 267 268 268 268 268 268 268 269 269 268 267 268 269 269 270 271 272 273 273 274 276 278 280 282 284 286 288 289 290 291 293 294 294 295 296 297 297 298 298 298 297 297 297 296 296 296 296 297 297
260 260 258 259 262 264 263 262 261 259 258 257 258 259 260 260 261 261 261 260 258 259 261 263 260 254 259 265 262 259 260 260 259 259 261 263 264 265 267 268 268 269 269 269 269 270 270 269 269 269 270 271 272 273 273 274 275 276 278 280 282 284 286 287 289 290 291 292 293 293 294 295 296 297 297 297 297 297 296 296 296 295 295 296 296 297
259 259 258 259 261 263 264 263 261 259 259 259 258 258 259 261 262 262 262 261 259 260 263 266 264 258 256 263 264 260 260 262 262 260 260 262 264 265 266 267 267 268 269 270 271 271 271 271 271 272 272 273 273 273 274 275 276 277 279 281 282 284 285 287 288 289 290 291 291 292 293 294 295 295 295 296 296 296 296 295 295 294 295 296 297 297
257 258 259 258 258 260 262 262 261 260 259 260 260 259 259 260 262 263 262 261 260 262 266 267 266 261 252 257 266 267 264 262 262 262 262 262 263 265 266 266 267 268 269 271 271 272 272 273 273 273 274 274 274 275 276 277 278 279 281 282 283 284 285 286 287 288 289 289 290 291 292 293 294 294 295 295 295 295 295 294 294 294 294 296 297 297
256 257 258 257 258 259 260 261 262 262 261 261 260 260 260 260 261 262 263 263 263 265 267 265 264 262 255 253 263 269 269 266 263 263 264 264 263 264 266 267 267 268 269 270 271 272 272 273 273 274 274 275 276 277 279 280 281 281 282 282 283 283 284 285 286 287 287 288 289 291 292 293 294 294 294 294 294 294 294 293 293 293 294 296 296 296
255 256 258 259 259 259 260 261 262 263 262 260 259 259 259 260 261 263 264 265 266 266 263 261 262 264 264 261 261 264 268 269 269 268 267 267 267 266 266 267 268 268 269 270 271 271 272 273 274 274 275 276 278 279 280 281 282 282 282 282 283 283 284 284 285 286 287 288 290 291 293 294 294 294 294 294 294 293 293 292 293 294 295 295 296 296
256 255 257 259 259 260 260 260 260 261 260 259 259 260 261 261 262 263 265 265 266 263 259 260 263 267 271 267 262 263 264 267 269 269 269 269 269 268 268 268 269 270 270 271 271 272 273 274 274 275 276 277 279 280 282 282 283 283 283 283 283 283 284 284 285 286 288 290 291 293 294 294 294 294 294 294 293 292 292 292 293 294 294 295 296 296
256 256 255 256 259 260 259 259 259 259 260 260 261 261 262 262 262 263 264 265 264 260 258 261 264 269 273 268 264 263 260 263 268 270 269 269 269 270 270 270 271 271 272 272 273 274 274 275 275 276 277 278 280 282 283 283 284 284 284 284 284 284 284 285 286 288 290 292 293 294 294 294 294 294 294 293 293 292 292 292 293 294 294 295 295 296
256 256 257 256 256 257 259 260 260 261 262 263 263 262 261 262 262 261 262 262 261 261 261 262 264 268 270 266 264 264 262 262 265 268 269 269 269 270 271 271 272 273 273 274 274 275 275 275 276 277 278 279 281 282 283 283 284 284 284 284 284 285 286 287 289 291 292 292 293 294 294 295 295 294 294 293 293 293 293 293 293 293 294 294 294 295
256 256 257 258 257 258 259 261 262 263 264 264 263 263 263 264 263 260 259 260 260 261 262 263 265 266 263 260 262 265 266 266 265 266 268 268 269 270 271 272 272 273 274 274 275 275 275 276 277 278 279 280 281 282 283 283 284 284 284 285 286 287 288 290 290 291 292 293 293 294 295 295 295 294 294 294 294 294 294 294 293 293 293 294 294 295
256 256 258 260 261 262 262 263 264 264 264 265 265 265 265 264 263 262 260 261 260 259 260 263 264 264 262 261 262 264 267 267 267 267 267 268 269 270 270 271 271 272 273 274 274 275 276 277 278 279 280 281 281 282 283 284 284 285 285 286 287 288 289 290 290 291 292 293 294 295 295 295 294 294 294 294 294 294 294 294 294 294 294 294 294 295
255 256 258 261 262 264 265 264 264 264 265 265 266 266 265 264 264 265 263 263 263 262 261 261 262 262 262 263 264 264 264 265 267 267 268 269 270 271 271 271 272 272 273 274 274 276 277 278 279 280 281 281 282 282 283 284 284 285 286 287 288 288 289 290 291 292 293 294 294 294 294 294 294 295 295 295 295 295 295 295 295 295 295 295 295 296
255 255 256 258 261 263 264 265 265 265 265 265 265 265 265 265 266 267 267 266 266 265 263 261 261 260 262 264 262 262 263 263 265 267 269 270 271 272 273 274 274 274 274 275 276 277 278 279 279 280 280 281 281 282 283 283 285 286 286 287 288 289 290 291 292 293 293 293 293 293 293 294 294 295 296 296 297 297 297 296 296 296 295 296 296 296
258 256 255 256 259 261 262 263 265 266 266 264 263 264 266 268 269 270 269 267 266 266 264 263 262 261 262 262 260 262 265 266 267 268 270 271 272 273 275 276 276 276 276 277 278 278 279 279 279 280 280 280 281 282 283 285 286 287 287 288 289 290 291 292 292 292 292 292 293 293 293 294 295 295 296 296 296 296 296 296 295 295 295 295 295 296
258 258 257 257 258 259 261 263 263 264 264 263 263 265 268 269 269 269 269 269 269 268 265 262 261 262 262 262 263 264 266 268 270 270 270 271 272 273 274 274 275 275 276 278 279 279 279 279 279 279 279 280 282 284 286 286 287 288 289 289 290 290 291 290 290 291 292 293 293 293 294 294 295 295 295 295 295 295 295 295 295 295 295 295 295 295
259 259 259 258 258 259 261 262 263 263 263 265 266 267 268 269 269 269 269 270 269 267 265 263 263 265 266 266 266 267 266 267 269 269 269 270 271 271 272 273 274 275 276 277 278 279 279 279 279 279 280 282 284 286 287 287 287 288 288 289 289 289 290 290 290 291 292 293 294 294 294 294 294 294 294 294 295 295 294 294 294 295 295 295 294 294
259 259 259 259 260 261 261 262 263 264 265 266 267 267 268 269 270 269 267 266 266 266 267 268 268 268 268 268 267 265 265 266 268 270 270 269 269 270 271 272 273 274 276 277 278 279 280 280 281 281 283 285 286 287 287 287 287 287 287 288 289 289 289 290 290 291 293 294 294 294 294 294 294 294 294 294 294 294 294 294 294 294 294 294 294 294
260 261 261 261 260 259 260 261 263 265 267 268 270 270 268 266 267 267 267 266 266 268 270 272 271 269 267 268 268 265 264 265 267 270 270 269 269 269 270 271 273 274 276 278 279 280 280 281 281 283 285 286 287 287 287 286 286 286 287 288 289 289 290 290 291 292 293 294 295 294 294 293 293 293 293 293 293 293 293 293 293 293 293 293 294 294
261 262 262 261 260 259 259 261 263 266 268 268 268 266 265 266 267 268 269 268 268 270 272 272 273 274 268 266 267 265 264 263 264 266 268 270 270 271 272 273 274 276 278 279 279 280 280 281 282 284 286 288 288 288 287 286 286 287 287 288 289 290 291 291 292 293 294 295 295 293 292 292 292 292 292 292 292 293 293 293 293 293 293 293 294 295
261 262 262 262 262 262 262 262 264 266 265 264 263 263 266 268 268 268 270 269 269 272 274 273 274 275 269 266 265 266 266 265 264 265 267 269 272 273 274 275 276 277 278 279 279 280 281 283 284 286 287 288 288 287 286 286 287 288 288 289 290 291 291 292 292 293 294 294 293 291 291 291 291 291 291 292 292 292 292 292 292 293 294 295 296 297
260 262 263 263 263 263 265 265 265 263 262 262 263 265 266 267 268 269 269 269 272 274 272 272 274 273 271 270 269 268 268 267 267 268 269 270 272 273 274 274 275 276 277 278 279 281 282 284 285 287 287 287 287 286 286 287 288 288 289 290 290 291 292 292 292 293 292 292 291 290 290 290 290 291 291 292 292 292 292 293 293 294 295 297 298 299
259 260 261 263 265 265 266 266 264 263 262 263 264 265 265 266 268 269 269 272 275 272 270 273 276 272 271 273 271 270 270 270 269 270 270 270 271 271 271 273 274 276 277 278 280 282 284 285 286 287 287 287 286 286 286 287 288 288 289 290 291 291 292 292 291 291 291 290 290 289 289 290 290 291 291 292 292 292 293 294 295 296 298 299 300 300
258 259 260 262 264 264 264 264 264 264 263 263 263 264 266 267 268 269 271 274 273 271 272 276 275 272 273 274 272 272 271 271 270 270 270 270 270 271 273 275 276 277 278 280 281 283 284 285 286 286 285 285 285 286 287 287 288 288 289 290 291 291 291 290 290 290 290 289 289 289 290 291 291 292 292 293 293 294 295 296 297 299 300 301 301 302
257 258 259 260 261 262 262 263 264 264 264 264 263 264 265 267 269 271 273 273 271 272 275 276 273 273 274 273 273 273 272 271 271 271 271 272 272 273 275 277 278 278 279 281 281 282 283 284 284 284 284 284 285 286 287 287 288 288 289 289 289 289 289 289 289 289 289 290 290 290 291 292 292 293 293 294 295 296 297 298 300 301 302 302 303 304
255 256 257 258 258 259 260 262 263 265 265 265 264 264 264 266 270 272 273 273 272 274 275 273 271 273 274 274 274 274 273 272 272 272 273 273 274 274 275 276 277 279 280 280 281 282 282 283 283 283 284 284 285 286 286 286 287 287 288 288 288 288 289 289 289 289 290 291 291 291 292 293 293 294 295 296 297 298 299 301 302 303 303 304 305 306
254 255 256 257 258 258 259 262 264 264 265 264 263 264 266 269 271 272 272 272 271 273 274 273 273 275 276 274 273 273 274 275 274 274 274 273 274 274 275 277 278 279 280 280 281 281 282 282 283 283 284 285 285 285 285 286 286 286 287 286 287 288 288 288 288 289 291 291 292 293 293 294 295 295 296 298 299 300 302 303 304 304 305 306 307 309
255 256 257 258 259 259 260 262 262 263 264 264 263 266 270 271 269 268 268 269 271 273 274 274 275 277 275 273 274 275 276 275 275 274 274 274 275 276 277 278 279 279 280 280 280 281 281 282 282 283 284 284 284 285 285 285 286 286 286 286 287 288 288 289 290 291 292 293 293 294 295 295 296 297 299 300 301 303 304 305 306 306 307 308 310 311
256 257 258 259 260 260 260 261 262 262 262 263 265 268 269 268 267 267 268 269 271 273 274 275 277 277 274 274 276 276 276 275 275 275 275 276 277 277 277 278 278 279 280 280 281 281 282 282 283 284 284 284 284 285 285 286 286 286 287 287 288 288 289 291 292 292 293 294 294 295 296 297 298 300 301 303 304 305 306 307 307 308 309 311 312 313
255 257 258 259 261 261 260 261 262 261 262 264 266 267 266 265 267 269 269 270 271 272 273 275 276 275 274 274 274 274 275 276 276 276 276 276 277 277 278 278 279 279 280 280 281 282 283 284 284 285 285 285 285 285 286 286 286 286 287 288 289 290 291 292 293 294 295 295 296 297 298 300 301 303 304 305 306 307 307 308 309 310 312 313 315 316
257 258 259 260 261 262 261 260 261 261 263 265 265 264 264 265 267 268 269 270 271 271 272 273 273 273 274 274 275 276 276 277 277 277 278 278 278 279 280 280 280 280 280 281 283 284 285 286 286 286 286 286 286 286 286 287 287 287 288 290 291 292 293 294 295 296 296 297 298 300 301 302 304 305 306 307 307 308 309 310 311 313 314 315 316 317
259 260 260 261 262 263 262 261 261 262 263 263 263 264 265 266 267 268 268 269 270 271 271 271 272 273 274 274 276 276 277 277 278 279 280 281 282 281 281 281 281 281 282 283 284 286 286 286 287 287 287 287 287 287 287 287 287 288 290 292 293 294 295 296 297 297 298 299 301 302 303 305 305 306 307 307 308 309 310 312 313 315 316 316 317 317
260 261 262 262 263 264 264 264 264 263 262 262 264 265 266 266 267 267 268 267 269 270 271 272 272 273 274 275 276 276 277 278 278 280 282 283 282 281 281 281 281 282 284 285 286 286 287 287 287 288 288 288 288 288 288 289 289 291 293 294 295 296 296 297 298 299 300 301 303 304 305 306 306 307 307 308 309 311 312 313 314 315 316 316 317 317
261 262 263 264 265 265 265 266 265 264 264 265 266 266 266 266 267 267 268 268 268 270 272 273 273 274 275 275 276 276 277 278 280 281 282 281 281 281 281 282 283 284 285 286 286 287 287 288 288 288 288 288 289 289 290 291 293 294 295 296 296 297 298 299 300 301 302 303 304 305 306 306 306 307 308 309 311 312 313 314 315 315 316 316 317 317
262 263 264 265 266 265 266 266 266 267 267 267 266 266 267 268 267 267 268 268 269 271 272 272 273 274 275 275 276 277 278 279 280 280 279 280 281 281 282 283 284 285 286 287 287 287 288 288 288 289 289 290 290 291 293 294 295 296 297 297 298 299 300 300 301 303 304 305 305 305 306 306 307 308 309 311 312 313 313 314 315 315 316 316 316 316
263 264 264 265 266 266 266 267 267 267 268 268 267 267 268 268 268 269 270 271 271 271 271 272 273 274 274 275 276 277 278 278 278 278 279 280 281 282 283 284 285 286 287 287 287 288 288 289 289 290 290 292 293 294 295 296 297 297 298 299 300 300 301 302 303 304 305 305 305 305 306 307 308 309 310 311 312 313 313 314 314 314 315 315 315 315
264 265 265 266 266 267 267 267 268 268 268 268 268 268 268 268 268 269 271 272 272 271 271 272 273 274 275 275 276 277 277 278 278 279 279 280 281 282 284 285 285 286 287 287 287 288 288 289 290 291 292 294 295 296 296 297 298 298 299 300 301 301 302 303 304 304 304 305 305 305 306 308 309 310 311 311 312 312 312 313 313 314 314 314 314 314
265 266 266 267 267 267 268 268 268 268 269 269 270 269 269 269 269 269 270 270 270 271 271 272 273 274 274 275 276 277 278 278 279 280 280 281 282 283 284 284 285 286 286 287 287 288 289 290 292 293 294 295 296 296 297 298 298 299 300 300 301 301 302 303 304 304 304 305 305 306 308 309 310 310 310 310 311 311 312 312 313 313 313 313 313 313
265 266 266 267 268 268 269 269 270 271 271 271 271 270 270 270 270 270 270 270 271 271 271 272 273 274 275 276 277 278 279 279 280 280 281 282 282 283 283 284 285 285 286 287 288 289 290 292 293 294 295 295 296 296 297 298 299 299 300 300 300 302 303 303 303 304 304 305 306 307 308 308 309 309 309 309 310 311 311 311 312 312 312 312 312 313
265 265 266 268 268 269 269 270 271 271 272 271 271 271 272 272 272 272 272 272 273 273 273 273 274 275 276 277 278 278 279 279 280 281 281 282 282 282 283 284 285 286 287 288 289 290 291 292 293 294 294 295 295 296 297 297 298 299 299 299 300 302 302 303 303 304 305 306 306 307 307 307 307 307 308 309 310 310 310 310 310 310 311 311 312 312
264 265 267 267 268 268 269 270 270 271 272 272 272 272 272 273 273 273 274 274 274 275 275 275 276 277 277 278 279 279 279 279 280 280 281 281 282 282 283 284 285 286 287 288 289 290 291 292 293 293 294 294 295 295 296 297 297 298 299 299 300 301 302 303 303 304 305 305 306 306 306 306 306 307 308 308 309 309 309 309 309 310 310 311 311 311
264 265 266 267 268 268 269 270 270 271 271 272 272 272 273 273 273 274 274 275 276 277 277 277 277 278 278 278 278 279 279 279 280 280 281 281 282 283 284 284 285 286 287 288 289 290 291 292 293 293 294 294 294 295 295 296 297 298 298 299 301 301 302 303 304 304 304 304 305 305 305 305 306 307 307 308 308 308 308 308 309 309 310 310 310 310
262 263 265 266 267 267 268 269 270 270 270 271 272 272 273 274 274 275 276 277 278 278 278 278 278 278 278 279 279 279 280 280 280 281 281 282 282 283 284 284 285 286 288 288 290 290 291 292 292 293 293 293 294 294 295 296 297 297 298 299 300 301 302 303 303 303 303 303 304 304 305 305 306 306 307 307 307 308 308 308 308 309 309 309 309 309
260 262 263 264 265 265 266 267 268 269 269 270 271 272 273 274 275 276 277 277 278 278 278 278 279 279 279 280 280 280 280 281 281 281 281 282 282 283 284 285 286 287 288 289 289 290 291 291 292 292 292 293 293 294 295 295 296 297 298 299 300 301 302 302 302 302 302 303 303 304 304 305 305 306 306 306 307 307 307 308 308 308 308 309 308 308
259 260 261 262 262 263 264 265 266 267 268 269 271 272 273 274 275 275 276 276 277 277 278 278 279 279 280 280 280 280 280 281 281 281 281 281 282 283 284 285 286 287 288 288 289 289 290 290 290 291 291 292 292 293 294 295 296 297 298 299 300 300 300 301 301 301 302 302 303 303 304 304 305 305 305 306 306 306 307 307 307 307 308 307 307 307
258 259 260 260 261 261 262 263 264 265 267 268 269 270 271 272 273 273 274 274 275 276 277 277 278 279 279 279 280 280 280 280 280 280 280 281 282 282 283 284 285 286 286 287 288 288 289 289 289 290 291 291 292 293 294 295 296 297 298 298 299 299 299 300 300 301 301 302 302 303 303 303 304 304 304 305 305 306 306 306 307 307 306 306 306 306
258 258 259 260 261 261 262 263 264 265 265 266 267 268 269 270 271 271 272 273 274 275 276 276 277 278 278 278 278 278 278 279 279 279 280 280 281 282 282 283 284 285 285 286 286 287 287 288 289 289 290 291 292 293 294 295 296 297 297 297 298 298 299 300 300 300 301 301 301 302 302 302 303 303 304 304 305 305 305 306 306 305 305 305 305 305
Height
10745 10749 10751 10746 10742 10744 10750 10752 10752 10753 10754 10754 10754 10755 10755 10755 10756 10756 10760 10761 10758 10763 10764 10763 10764 10763 10763 10764 10764 10765 10765 10766 10766 10767 10768 10766 10766 10767 10767 10767 10767 10766 10766 10767 10768 10767 10767 10767 10767 10767 10767 10767 10766 10766 10765 10764 10763 10762 10761 10761 10760 10759 10759 10758 10756 10755 10754 10753 10752 10750 10749 10747 10745 10743 10742 10740 10738 10736 10733 10731 10729 10727 10725 10723 10721 10719
10739 10746 10746 10737 10737 10743 10747 10746 10747 10749 10750 10750 10749 10750 10751 10751 10751 10752 10757 10756 10755 10759 10760 10758 10762 10761 10759 10760 10761 10762 10761 10761 10763 10764 10763 10762 10763 10764 10763 10763 10763 10763 10763 10764 10764 10764 10764 10763 10763 10764 10763 10763 10762 10761 10761 10760 10759 10758 10758 10757 10756 10755 10754 10753 10752 10751 10750 10749 10747 10746 10744 10743 10741 10739 10737 10735 10733 10731 10729 10726 10724 10722 10719 10717 10714 10712
10736 10742 10739 10733 10735 10739 10740 10740 10742 10745 10746 10746 10745 10745 10746 10747 10746 10748 10752 10752 10752 10755 10755 10755 10758 10758 10755 10756 10757 10758 10759 10757 10757 10758 10759 10759 10759 10759 10760 10760 10760 10759 10759 10760 10760 10760 10760 10760 10760 10760 10759 10759 10758 10757 10757 10756 10755 10754 10753 10753 10752 10751 10750 10749 10748 10747 10746 10744 10743 10741 10740 10737 10736 10733 10731 10730 10728 10725 10723 10720 10718 10716 10713 10710 10708 10706
10733 10736 10734 10731 10732 10733 10733 10736 10739 10740 10741 10741 10741 10741 10742 10742 10742 10744 10746 10748 10748 10749 10751 10751 10755 10755 10751 10752 10753 10754 10756 10754 10752 10752 10754 10756 10755 10755 10756 10757 10756 10756 10755 10755 10755 10756 10755 10755 10755 10755 10755 10755 10754 10754 10753 10752 10751 10750 10749 10748 10747 10747 10746 10745 10743 10742 10741 10739 10738 10736 10734 10732 10730 10728 10726 10724 10722 10719 10717 10714 10712 10709 10706 10704 10701 10698
10729 10731 10732 10727 10724 10727 10729 10732 10734 10735 10736 10735 10735 10737 10738 10736 10736 10738 10741 10744 10744 10744 10746 10747 10751 10752 10746 10748 10751 10749 10750 10751 10748 10748 10749 10751 10751 10751 10751 10752 10753 10751 10751 10751 10751 10751 10751 10751 10751 10751 10751 10750 10750 10749 10749 10747 10746 10745 10744 10743 10743 10742 10741 10740 10738 10737 10735 10734 10732 10730 10728 10726 10724 10722 10720 10718 10715 10713 10710 10708 10705 10702 10699 10697 10694 10691
10725 10728 10729 10721 10717 10721 10725 10727 10729 10729 10730 10730 10731 10732 10732 10731 10731 10733 10736 10740 10741 10740 10741 10742 10747 10749 10743 10744 10746 10743 10744 10746 10744 10744 10745 10747 10747 10746 10746 10747 10748 10747 10746 10747 10746 10746 10746 10746 10746 10746 10745 10745 10745 10745 10744 10743 10742 10741 10740 10739 10738 10737 10735 10734 10732 10731 10729 10727 10726 10723 10721 10719 10717 10715 10713 10711 10708 10706 10703 10701 10698 10695 10692 10689 10686 10683
10721 10722 10721 10717 10714 10716 10719 10722 10723 10722 10723 10725 10727 10727 10726 10726 10727 10729 10731 10734 10737 10736 10737 10738 10741 10745 10743 10739 10737 10737 10739 10740 10739 10740 10740 10741 10742 10742 10742 10742 10743 10742 10742 10742 10742 10741 10742 10741 10741 10741 10740 10740 10740 10739 10738 10738 10737 10736 10735 10734 10733 10731 10730 10728 10726 10724 10723 10721 10719 10717 10715 10713 10711 10709 10706 10704 10701 10698 10696 10693 10690 10687 10684 10680 10677 10674
10715 10713 10713 10713 10711 10711 10713 10714 10715 10716 10717 10721 10722 10721 10721 10721 10721 10724 10726 10729 10732 10732 10735 10735 10733 10739 10744 10735 10727 10731 10736 10734 10732 10733 10735 10736 10737 10737 10738 10737 10737 10737 10737 10737 10737 10737 10737 10737 10736 10735 10735 10735 10734 10734 10733 10732 10732 10731 10730 10729 10727 10726 10724 10722 10720 10718 10716 10714 10712 10710 10708 10706 10704 10701 10699 10696 10693 10690 10688 10685 10682 10678 10675 10671 10668 10665
10707 10707 10707 10707 10706 10707 10707 10706 10707 10709 10713 10716 10716 10716 10717 10716 10717 10718 10720 10723 10726 10729 10734 10732 10724 10729 10740 10733 10723 10725 10730 10729 10726 10726 10730 10731 10731 10731 10732 10731 10731 10731 10732 10732 10731 10732 10732 10731 10731 10730 10730 10729 10728 10728 10727 10727 10726 10725 10724 10723 10721 10719 10718 10716 10714 10712 10709 10707 10705 10703 10701 10699 10697 10694 10691 10688 10685 10682 10679 10676 10673 10669 10666 10662 10659 10655
10702 10702 10699 10699 10701 10702 10701 10700 10701 10703 10708 10711 10709 10710 10711 10711 10711 10712 10714 10717 10721 10729 10732 10724 10715 10718 10732 10734 10726 10721 10720 10718 10718 10721 10724 10724 10725 10726 10725 10725 10725 10726 10727 10726 10726 10726 10726 10726 10725 10725 10724 10723 10723 10722 10722 10721 10720 10719 10718 10716 10715 10713 10711 10709 10707 10705 10702 10700 10698 10697 10694 10692 10689 10686 10683 10680 10677 10674 10670 10667 10663 10660 10656 10653 10649 10646
10696 10695 10693 10694 10695 10696 10695 10696 10697 10698 10701 10703 10702 10704 10703 10704 10706 10707 10710 10712 10717 10727 10724 10714 10708 10711 10726 10734 10726 10720 10715 10708 10709 10715 10718 10717 10718 10720 10719 10718 10719 10720 10720 10720 10720 10720 10719 10719 10719 10718 10718 10717 10717 10716 10715 10715 10713 10712 10711 10709 10708 10706 10704 10702 10700 10697 10695 10693 10692 10689 10687 10684 10681 10678 10675 10671 10668 10665 10661 10658 10654 10650 10646 10643 10639 10635
10687 10689 10690 10689 10688 10689 10690 10690 10691 10691 10693 10694 10696 10698 10697 10700 10702 10703 10706 10707 10711 10718 10713 10707 10705 10708 10723 10729 10720 10717 10713 10703 10701 10707 10711 10710 10710 10712 10712 10712 10712 10713 10713 10713 10713 10713 10712 10713 10712 10711 10711 10711 10710 10709 10709 10708 10706 10705 10703 10702 10700 10698 10696 10694 10692 10690 10688 10686 10684 10681 10678 10675 10672 10669 10666 10662 10659 10656 10652 10648 10644 10640 10636 10633 10629 10625
10679 10682 10683 10683 10683 10683 10681 10682 10685 10685 10686 10688 10691 10692 10692 10693 10696 10698 10700 10700 10703 10707 10705 10704 10703 10707 10719 10720 10712 10710 10708 10701 10697 10699 10703 10703 10703 10704 10705 10705 10706 10705 10706 10706 10706 10706 10706 10705 10705 10705 10704 10704 10703 10702 10701 10700 10699 10697 10695 10694 10692 10690 10688 10686 10684 10682 10680 10678 10675 10672 10669 10666 10663 10660 10656 10653 10650 10646 10643 10639 10634 10631 10627 10623 10619 10615
10673 10675 10676 10677 10677 10674 10674 10676 10679 10680 10682 10684 10686 10685 10685 10687 10688 10693 10693 10691 10694 10698 10700 10700 10701 10707 10713 10709 10703 10701 10700 10699 10696 10694 10695 10696 10696 10697 10698 10698 10699 10699 10699 10699 10699 10698 10698 10698 10698 10697 10696 10696 10695 10695 10694 10693 10691 10690 10688 10686 10684 10682 10680 10678 10676 10674 10671 10669 10666 10663 10660 10657 10654 10651 10647 10644 10641 10637 10633 10629 10625 10621 10617 10613 10609 10604
10665 10669 10669 10668 10669 10668 10669 10671 10672 10676 10679 10679 10678 10678 10681 10681 10679 10683 10685 10684 10688 10691 10694 10695 10697 10703 10704 10700 10698 10694 10692 10693 10691 10689 10688 10688 10689 10691 10691 10691 10691 10692 10692 10692 10691 10691 10691 10691 10690 10690 10689 10688 10688 10687 10686 10685 10683 10681 10679 10677 10675 10673 10671 10670 10667 10665 10663 10660 10657 10654 10651 10648 10645 10641 10638 10635 10631 10628 10624 10620 10616 10611 10607 10602 10598 10593
10657 10662 10663 10661 10662 10663 10664 10665 10666 10671 10674 10672 10671 10672 10676 10672 10668 10673 10678 10679 10680 10684 10690 10692 10693 10695 10693 10694 10695 10691 10687 10684 10682 10683 10682 10680 10682 10683 10684 10684 10684 10684 10684 10684 10684 10683 10683 10683 10683 10682 10681 10680 10680 10679 10678 10677 10675 10673 10670 10668 10666 10664 10663 10661 10658 10656 10653 10651 10648 10645 10642 10638 10635 10632 10629 10625 10622 10618 10614 10610 10606 10601 10596 10591 10587 10582
10649 10654 10658 10657 10657 10657 10657 10658 10659 10664 10668 10667 10665 10666 10666 10662 10661 10665 10670 10673 10672 10678 10687 10687 10687 10687 10685 10689 10691 10685 10682 10677 10673 10675 10675 10674 10675 10675 10675 10676 10676 10677 10676 10676 10676 10676 10676 10676 10675 10674 10673 10673 10672 10671 10670 10668 10666 10664 10662 10660 10657 10656 10653 10651 10649 10646 10644 10641 10638 10635 10632 10629 10626 10622 10619 10615 10611 10608 10604 10599 10595 10590 10585 10580 10575 10571
10642 10647 10652 10651 10651 10652 10649 10649 10652 10658 10662 10661 10659 10658 10655 10655 10657 10658 10661 10666 10666 10669 10680 10682 10681 10682 10681 10684 10683 10676 10674 10671 10667 10667 10669 10669 10668 10668 10668 10668 10669 10669 10668 10668 10669 10669 10669 10667 10667 10666 10665 10664 10663 10662 10661 10659 10657 10655 10653 10651 10648 10646 10644 10642 10640 10637 10634 10632 10629 10626 10623 10619 10616 10612 10609 10605 10601 10597 10593 10588 10584 10579 10574 10569 10564 10560
10634 10639 10645 10647 10647 10645 10642 10643 10648 10650 10651 10651 10651 10651 10650 10651 10652 10651 10652 10658 10658 10660 10670 10673 10673 10676 10677 10676 10674 10671 10667 10664 10662 10663 10663 10663 10662 10662 10662 10661 10661 10660 10659 10660 10661 10660 10660 10659 10658 10657 10655 10655 10654 10654 10653 10650 10648 10646 10644 10641 10639 10637 10635 10633 10631 10628 10626 10623 10620 10617 10613 10610 10606 10602 10598 10595 10591 10587 10582 10577 10573 10568 10563 10558 10553 10549
10625 10629 10636 10642 10641 10637 10637 10640 10642 10641 10639 10642 10645 10647 10647 10646 10645 10644 10644 10649 10650 10652 10659 10663 10665 10670 10671 10668 10669 10669 10664 10657 10655 10656 10656 10656 10656 10656 10656 10654 10652 10651 10651 10652 10652 10651 10650 10650 10649 10648 10646 10646 10645 10645 10644 10641 10639 10636 10634 10632 10630 10628 10627 10624 10622 10619 10617 10614 10611 10607 10603 10599 10595 10591 10588 10584 10580 10576 10571 10566 10561 10556 10552 10547 10542 10537
10616 10620 10626 10632 10633 10632 10634 10634 10632 10631 10633 10636 10640 10641 10640 10638 10636 10636 10640 10642 10640 10641 10647 10652 10660 10668 10665 10662 10666 10664 10658 10652 10647 10646 10648 10648 10649 10649 10648 10646 10644 10644 10644 10645 10643 10642 10641 10640 10640 10639 10638 10637 10637 10636 10634 10631 10629 10627 10625 10623 10621 10620 10618 10615 10613 10610 10608 10605 10601 10597 10593 10589 10584 10581 10577 10574 10569 10565 10560 10555 10550 10545 10540 10535 10530 10526
10607 10610 10615 10621 10627 10629 10628 10627 10625 10625 10628 10631 10632 10634 10634 10630 10626 10626 10631 10634 10629 10633 10641 10644 10655 10667 10660 10655 10659 10655 10650 10646 10640 10638 10640 10640 10640 10641 10639 10638 10637 10637 10637 10637 10636 10634 10633 10632 10631 10630 10630 10629 10629 10627 10625 10622 10620 10618 10616 10614 10613 10611 10608 10606 10604 10601 10598 10595 10591 10587 10582 10578 10574 10571 10567 10563 10558 10554 10550 10545 10539 10534 10529 10524 10519 10513
10596 10600 10606 10613 10618 10619 10618 10620 10620 10620 10623 10625 10627 10628 10621 10617 10618 10616 10620 10625 10624 10630 10638 10636 10646 10661 10656 10648 10649 10646 10643 10641 10635 10632 10630 10629 10631 10632 10631 10630 10630 10630 10631 10630 10629 10627 10625 10624 10623 10623 10623 10622 10620 10618 10615 10613 10611 10609 10608 10606 10604 10601 10599 10597 10594 10591 10588 10584 10580 10576 10572 10568 10564 10561 10557 10552 10548 10543 10539 10533 10528 10523 10518 10512 10506 10500
10588 10591 10597 10599 10602 10606 10611 10615 10616 10617 10618 10618 10619 10614 10606 10609 10612 10609 10611 10615 10618 10628 10632 10627 10638 10652 10648 10642 10639 10635 10635 10635 10630 10626 10622 10620 10622 10624 10623 10623 10623 10624 10624 10623 10621 10618 10617 10618 10617 10617 10616 10614 10612 10609 10606 10603 10602 10601 10599 10597 10594 10592 10589 10587 10584 10581 10577 10573 10569 10565 10561 10558 10554 10550 10545 10541 10537 10532 10527 10522 10517 10511 10505 10499 10493 10487
10580 10582 10585 10586 10589 10596 10603 10611 10613 10612 10607 10604 10605 10603 10603 10606 10603 10601 10605 10604 10610 10627 10623 10617 10633 10642 10635 10633 10632 10627 10627 10627 10623 10620 10617 10615 10615 10616 10615 10615 10615 10616 10615 10614 10612 10610 10611 10611 10610 10609 10608 10606 10603 10600 10596 10594 10593 10592 10590 10587 10584 10581 10579 10577 10573 10570 10566 10563 10559 10555 10551 10547 10543 10539 10534 10530 10525 10520 10515 10511 10505 10498 10492 10485 10479 10473
10573 10575 10575 10574 10579 10587 10597 10603 10603 10598 10591 10591 10597 10599 10599 10599 10593 10595 10598 10595 10608 10622 10610 10608 10626 10630 10623 10623 10624 10620 10618 10617 10616 10614 10612 10611 10610 10609 10607 10606 10607 10608 10607 10605 10603 10603 10604 10604 10602 10601 10598 10595 10592 10589 10586 10585 10584 10582 10579 10576 10573 10570 10568 10565 10562 10559 10556 10553 10549 10544 10539 10535 10531 10527 10523 10517 10512 10508 10503 10497 10491 10484 10477 10471 10465 10459
10565 10567 10568 10567 10571 10580 10589 10590 10586 10582 10581 10585 10590 10590 10590 10591 10589 10586 10587 10595 10606 10604 10598 10608 10616 10615 10617 10614 10611 10612 10611 10609 10609 10607 10604 10604 10602 10601 10599 10598 10600 10600 10599 10598 10596 10596 10596 10595 10593 10591 10587 10584 10581 10578 10577 10575 10574 10571 10568 10565 10562 10559 10557 10554 10550 10548 10545 10542 10537 10532 10527 10523 10520 10515 10510 10504 10500 10495 10490 10483 10476 10469 10462 10456 10450 10443
10556 10559 10563 10563 10563 10570 10577 10577 10571 10569 10573 10578 10580 10581 10583 10583 10580 10579 10584 10596 10593 10580 10594 10611 10600 10599 10613 10605 10597 10603 10602 10599 10601 10598 10596 10595 10593 10592 10591 10591 10593 10592 10591 10591 10589 10589 10587 10586 10584 10581 10577 10574 10570 10569 10567 10565 10562 10560 10557 10554 10550 10548 10545 10542 10539 10537 10534 10530 10524 10519 10515 10511 10507 10502 10496 10491 10486 10481 10475 10467 10460 10454 10447 10441 10435 10428
10548 10550 10556 10555 10552 10559 10566 10566 10562 10558 10562 10568 10570 10574 10578 10574 10573 10576 10580 10586 10577 10568 10591 10604 10585 10589 10605 10594 10586 10593 10591 10590 10591 10588 10588 10587 10584 10585 10585 10584 10584 10583 10583 10583 10581 10580 10579 10576 10574 10570 10567 10564 10562 10560 10558 10554 10551 10548 10546 10544 10539 10536 10534 10530 10528 10525 10521 10517 10511 10506 10501 10497 10493 10487 10482 10478 10472 10466 10459 10452 10445 10439 10432 10426 10419 10412
10537 10540 10546 10543 10541 10550 10558 10558 10556 10551 10550 10556 10559 10564 10570 10571 10572 10574 10572 10573 10567 10563 10581 10587 10572 10582 10594 10583 10578 10581 10577 10579 10581 10581 10582 10579 10576 10577 10576 10575 10575 10574 10574 10574 10571 10571 10569 10565 10563 10560 10558 10556 10553 10551 10547 10543 10540 10537 10535 10532 10528 10525 10522 10519 10516 10511 10507 10503 10497 10492 10488 10483 10478 10473 10468 10463 10457 10450 10443 10436 10430 10423 10417 10410 10403 10396
10526 10530 10536 10533 10530 10541 10554 10554 10548 10543 10540 10542 10547 10555 10566 10572 10572 10566 10562 10561 10556 10556 10569 10567 10562 10579 10585 10570 10566 10569 10567 10569 10571 10571 10572 10569 10567 10567 10565 10565 10566 10564 10564 10562 10560 10559 10557 10554 10552 10550 10548 10546 10543 10540 10536 10533 10530 10527 10524 10520 10516 10513 10510 10506 10502 10497 10493 10489 10483 10478 10475 10469 10463 10459 10454 10448 10441 10434 10427 10420 10414 10407 10401 10394 10386 10379
10519 10522 10528 10526 10519 10532 10552 10547 10535 10534 10529 10525 10539 10558 10567 10567 10558 10550 10551 10553 10549 10551 10557 10551 10554 10573 10571 10554 10554 10562 10560 10559 10559 10559 10558 10557 10558 10558 10556 10556 10554 10552 10551 10549 10548 10547 10544 10542 10541 10539 10537 10535 10531 10528 10525 10522 10520 10516 10512 10508 10505 10501 10497 10493 10488 10483 10479 10474 10468 10465 10460 10455 10449 10443 10438 10432 10425 10418 10412 10405 10398 10391 10385 10378 10370 10362
10513 10514 10518 10518 10510 10522 10542 10534 10522 10523 10514 10515 10543 10564 10560 10550 10540 10536 10543 10549 10546 10544 10544 10543 10549 10558 10552 10545 10548 10550 10546 10545 10547 10547 10547 10548 10547 10545 10545 10544 10542 10540 10538 10536 10536 10534 10532 10531 10529 10527 10525 10521 10518 10517 10513 10511 10508 10503 10500 10496 10492 10488 10483 10479 10474 10469 10464 10459 10455 10451 10446 10440 10434 10427 10421 10416 10409 10403 10396 10389 10382 10375 10368 10361 10354 10346
10506 10506 10509 10509 10503 10511 10527 10522 10511 10506 10503 10520 10548 10554 10543 10537 10531 10528 10534 10541 10539 10536 10535 10537 10540 10540 10538 10537 10538 10536 10535 10534 10533 10533 10536 10537 10535 10532 10532 10532 10530 10527 10524 10523 10523 10522 10521 10520 10517 10514 10511 10508 10506 10504 10501 10498 10495 10491 10488 10484 10479 10475 10470 10464 10460 10455 10450 10445 10441 10437 10432 10426 10419 10412 10405 10400 10393 10387 10380 10372 10365 10358 10351 10345 10337 10330
10498 10499 10500 10500 10496 10499 10509 10507 10495 10493 10506 10526 10536 10532 10530 10531 10526 10520 10524 10529 10530 10527 10527 10527 10528 10527 10527 10525 10525 10525 10525 10522 10519 10520 10522 10523 10522 10520 10519 10518 10515 10513 10512 10511 10511 10510 10508 10506 10503 10500 10498 10495 10493 10491 10488 10486 10482 10479 10476 10471 10466 10461 10456 10451 10446 10440 10435 10431 10427 10422 10417 10410 10403 10396 10390 10384 10378 10371 10363 10355 10348 10341 10334 10328 10320 10314
10489 10490 10490 10490 10487 10487 10490 10489 10485 10490 10505 10515 10516 10520 10525 10523 10517 10512 10511 10518 10521 10515 10513 10518 10520 10517 10515 10515 10515 10514 10512 10510 10508 10509 10510 10509 10508 10506 10504 10502 10500 10500 10501 10500 10499 10497 10495 10492 10490 10487 10485 10483 10480 10477 10475 10472 10468 10466 10462 10457 10452 10447 10442 10437 10432 10426 10421 10417 10413 10408 10401 10395 10388 10381 10375 10369 10362 10355 10346 10339 10332 10325 10318 10311 10304 10297
10480 10480 10479 10477 10476 10477 10476 10476 10477 10480 10490 10503 10511 10516 10514 10508 10506 10501 10497 10508 10515 10506 10501 10507 10509 10506 10504 10504 10504 10502 10499 10498 10498 10501 10502 10497 10492 10491 10490 10489 10489 10489 10490 10488 10487 10484 10481 10479 10477 10475 10472 10470 10467 10464 10461 10458 10455 10451 10447 10443 10438 10433 10428 10424 10418 10412 10408 10404 10399 10393 10386 10380 10373 10367 10360 10354 10347 10339 10330 10323 10316 10309 10302 10295 10288 10281
10469 10469 10471 10466 10465 10467 10465 10463 10463 10464 10478 10500 10507 10502 10496 10495 10496 10489 10483 10496 10509 10502 10493 10493 10494 10493 10493 10491 10490 10489 10487 10487 10491 10495 10491 10482 10478 10478 10477 10478 10478 10478 10477 10475 10473 10470 10468 10467 10465 10462 10460 10457 10454 10451 10448 10444 10440 10436 10432 10428 10423 10419 10414 10409 10403 10399 10396 10391 10384 10377 10371 10365 10359 10353 10346 10339 10332 10323 10315 10308 10301 10294 10287 10280 10273 10266
10458 10459 10461 10456 10452 10455 10455 10452 10452 10454 10470 10490 10492 10486 10483 10483 10482 10475 10470 10486 10503 10497 10484 10480 10480 10480 10480 10477 10476 10477 10476 10478 10484 10484 10476 10469 10468 10467 10466 10467 10466 10464 10464 10462 10459 10456 10455 10454 10452 10449 10447 10444 10441 10437 10434 10430 10426 10421 10417 10413 10408 10404 10399 10393 10390 10387 10382 10376 10369 10363 10357 10351 10344 10338 10331 10323 10316 10308 10301 10294 10287 10280 10273 10266 10258 10252
10445 10446 10447 10443 10442 10446 10445 10442 10444 10447 10458 10472 10475 10474 10472 10469 10467 10462 10460 10476 10492 10485 10471 10469 10468 10467 10468 10466 10465 10466 10466 10467 10469 10469 10464 10461 10458 10455 10454 10455 10453 10451 10450 10447 10444 10443 10441 10440 10438 10435 10433 10430 10426 10423 10419 10415 10411 10406 10402 10398 10394 10389 10383 10379 10377 10374 10367 10361 10355 10348 10343 10336 10329 10322 10315 10307 10301 10294 10287 10280 10273 10266 10259 10252 10245 10238
10430 10432 10432 10432 10434 10436 10434 10432 10433 10437 10447 10457 10459 10459 10459 10456 10455 10453 10454 10464 10471 10466 10460 10459 10457 10457 10458 10456 10454 10455 10454 10453 10455 10456 10454 10451 10446 10443 10442 10440 10439 10438 10436 10433 10431 10430 10427 10426 10423 10421 10418 10415 10411 10408 10404 10400 10396 10392 10388 10384 10379 10373 10369 10367 10364 10359 10353 10347 10340 10334 10328 10321 10314 10307 10299 10293 10287 10280 10274 10267 10260 10253 10245 10238 10231 10224
10418 10419 10418 10421 10424 10425 10423 10421 10419 10424 10436 10445 10444 10443 10445 10443 10442 10444 10447 10449 10450 10450 10450 10447 10445 10446 10447 10445 10444 10444 10443 10442 10443 10443 10441 10439 10436 10432 10428 10426 10425 10424 10422 10420 10418 10416 10414 10411 10408 10406 10403 10399 10395 10392 10389 10385 10382 10378 10374 10369 10363 10358 10356 10354 10350 10344 10338 10332 10325 10318 10312 10305 10298 10292 10285 10279 10273 10267 10261 10253 10246 10239 10232 10225 10218 10210
10406 10404 10404 10410 10414 10413 10411 10409 10407 10413 10426 10431 10426 10426 10429 10429 10428 10431 10433 10434 10436 10438 10438 10435 10434 10434 10434 10434 10434 10432 10431 10430 10429 10429 10428 10426 10423 10420 10416 10413 10412 10409 10408 10407 10404 10401 10399 10396 10393 10390 10387 10384 10380 10377 10374 10371 10368 10364 10360 10354 10347 10345 10344 10340 10334 10329 10324 10317 10310 10303 10297 10290 10284 10278 10272 10266 10259 10253 10247 10240 10232 10226 10219 10212 10205 10197
10392 10392 10393 10400 10404 10400 10398 10398 10398 10403 10412 10413 10411 10412 10415 10415 10416 10417 10418 10420 10423 10424 10425 10425 10423 10422 10422 10422 10420 10419 10418 10417 10416 10416 10416 10413 10410 10407 10403 10400 10398 10396 10395 10393 10390 10387 10384 10381 10378 10376 10372 10369 10366 10362 10360 10357 10354 10351 10346 10338 10333 10331 10329 10324 10319 10314 10308 10301 10295 10289 10283 10277 10271 10264 10258 10252 10245 10239 10233 10226 10219 10212 10205 10198 10191 10183
10380 10381 10384 10389 10390 10386 10386 10388 10389 10392 10396 10398 10398 10400 10400 10401 10403 10404 10405 10406 10408 10410 10413 10413 10412 10411 10410 10409 10407 10406 10405 10404 10403 10403 10401 10399 10396 10392 10389 10387 10385 10382 10380 10378 10375 10373 10370 10367 10364 10361 10357 10354 10351 10348 10346 10343 10340 10337 10330 10323 10319 10317 10313 10308 10304 10298 10292 10286 10280 10274 10268 10262 10256 10250 10244 10238 10231 10225 10219 10212 10205 10198 10191 10184 10176 10167
10369 10371 10373 10375 10374 10374 10374 10376 10378 10380 10382 10383 10384 10385 10385 10387 10388 10390 10392 10394 10395 10397 10398 10399 10399 10399 10397 10396 10395 10394 10392 10392 10391 10389 10386 10384 10381 10378 10375 10373 10370 10368 10366 10363 10360 10358 10355 10352 10349 10345 10342 10339 10335 10333 10331 10328 10326 10321 10314 10308 10305 10301 10297 10292 10288 10283 10277 10271 10265 10260 10254 10247 10241 10235 10229 10223 10217 10210 10204 10197 10190 10183 10176 10169 10160 10152
10358 10359 10361 10361 10361 10361 10362 10364 10366 10367 10367 10368 10370 10370 10371 10372 10373 10376 10380 10382 10382 10383 10384 10384 10384 10384 10383 10383 10383 10381 10380 10379 10377 10374 10372 10369 10365 10362 10360 10358 10355 10353 10350 10347 10345 10342 10339 10337 10333 10330 10327 10323 10319 10317 10315 10313 10310 10305 10300 10295 10290 10284 10280 10277 10272 10267 10262 10256 10250 10245 10238 10232 10226 10220 10214 10207 10201 10194 10188 10181 10174 10167 10160 10152 10143 10135
10346 10346 10348 10349 10349 10349 10349 10351 10352 10352 10352 10354 10356 10357 10359 10359 10361 10363 10366 10367 10368 10369 10368 10369 10369 10369 10369 10368 10367 10366 10365 10363 10361 10359 10355 10352 10349 10347 10344 10341 10339 10337 10334 10332 10330 10327 10324 10321 10318 10314 10311 10307 10303 10301 10299 10297 10293 10289 10286 10282 10275 10269 10264 10260 10256 10252 10246 10240 10234 10228 10222 10216 10210 10204 10198 10191 10185 10178 10171 10165 10158 10151 10144 10136 10127 10119
10336 10336 10336 10336 10336 10336 10336 10338 10338 10337 10339 10342 10344 10346 10348 10349 10350 10351 10351 10351 10352 10353 10354 10355 10356 10355 10353 10352 10351 10350 10348 10345 10344 10341 10338 10335 10333 10330 10328 10326 10324 10321 10319 10317 10314 10312 10309 10306 10303 10299 10296 10291 10288 10286 10284 10281 10277 10274 10270 10266 10261 10255 10249 10244 10240 10235 10230 10224 10218 10212 10206 10200 10194 10188 10182 10175 10169 10162 10154 10148 10142 10135 10128 10120 10113 10105
10324 10324 10321 10320 10320 10322 10324 10325 10325 10327 10330 10332 10334 10335 10336 10338 10339 10338 10338 10338 10338 10339 10341 10342 10342 10340 10338 10336 10335 10333 10331 10328 10326 10324 10322 10320 10318 10315 10313 10311 10309 10307 10305 10303 10300 10298 10294 10290 10288 10285 10280 10275 10272 10270 10268 10264 10260 10257 10252 10248 10244 10240 10235 10230 10224 10218 10212 10207 10201 10196 10191 10185 10178 10172 10166 10160 10153 10146 10139 10131 10125 10119 10112 10104 10097 10090
10308 10307 10305 10305 10307 10309 10311 10312 10313 10317 10320 10321 10322 10323 10325 10326 10327 10326 10326 10326 10327 10328 10329 10329 10328 10325 10322 10320 10318 10316 10315 10312 10310 10309 10308 10305 10303 10301 10299 10297 10295 10293 10291 10289 10287 10284 10279 10275 10273 10270 10265 10261 10257 10253 10250 10246 10243 10239 10235 10230 10226 10222 10218 10213 10208 10202 10196 10191 10186 10181 10176 10169 10163 10157 10150 10145 10138 10131 10123 10115 10108 10101 10095 10087 10080 10073